Weather History for Kirksville, MO

Change the Weather History Date:

Friday, November 23, 2012

  Actual Average Record
Temperature  
Mean Temperature 32 °F 37 °F  
Max Temperature 42 °F 46 °F 71 °F (1966)
Min Temperature 21 °F 28 °F 8 °F (1970)
Degree Days  
Heating Degree Days 33 28  
Month to date heating degree days 468 525  
Since 1 July heating degree days 1047 1014  
Cooling Degree Days 0 0  
Month to date cooling degree days 2 0  
Year to date cooling degree days 1321 939  
Moisture  
Dew Point 19 °F    
Average Humidity 63    
Maximum Humidity 82    
Minimum Humidity 44    
Precipitation  
Precipitation 0.00 in 0.07 in 0.84 in (1992)
Month to date precipitation 1.73 2.16  
Year to date precipitation 26.42 37.00  
Sea Level Pressure  
Sea Level Pressure 30.34 in    
Wind  
Wind Speed 13 mph (WNW)    
Max Wind Speed 26 mph    
Max Gust Speed 38 mph    
Visibility 10 miles    
Events      
T = Trace of Precipitation, MM = Missing Value Source: NWS Daily Summary

Daily Weather History Graph

Daily Weather History Graph

Search for Another Location

Airport:

Trip Planner

Search our weather history database for the weather conditions in past years. The results will help you decide how hot, cold, wet, or windy it might be!

Date:

Astronomy

Nov. 23, 2012 Rise Set
Actual Time 7:05 AM CST 4:48 PM CST
Civil Twilight 6:35 AM CST 5:17 PM CST
Nautical Twilight 6:02 AM CST 5:50 PM CST
Astronomical Twilight 5:29 AM CST 6:23 PM CST
Moon 2:03 PM CST (11/23) 2:24 AM CST (11/23)
Length of Visible Light 10h 42m
Length of Day
9h 42m
Waxing Gibbous, 80% of the Moon is Illuminated
Nov 23
Waxing Gibbous
Nov 28
Full
Dec 6
Last Quarter
Dec 13
New
Dec 19
First Quarter

Hourly Weather History & Observations

Time (CST) Temp. Windchill Dew Point Humidity Pressure Visibility Wind Dir Wind Speed Gust Speed Precip Events Conditions
12:55 AM 39.0 °F 32.8 °F 30.9 °F 73% 30.18 in 10.0 mi WNW 9.2 mph - N/A   Clear
1:55 AM 39.0 °F 31.8 °F 30.0 °F 70% 30.18 in 10.0 mi WNW 11.5 mph 17.3 mph N/A   Clear
2:55 AM 36.0 °F 30.3 °F 30.0 °F 79% 30.18 in 10.0 mi West 6.9 mph - N/A   Clear
3:55 AM 37.0 °F 29.8 °F 30.0 °F 76% 30.19 in 10.0 mi WNW 10.4 mph 20.7 mph N/A   Mostly Cloudy
4:55 AM 37.0 °F 27.0 °F 24.1 °F 59% 30.22 in 10.0 mi NW 18.4 mph 27.6 mph N/A   Overcast
5:55 AM 35.1 °F 25.5 °F 21.9 °F 59% 30.26 in 10.0 mi NW 15.0 mph 29.9 mph N/A   Overcast
6:55 AM 30.9 °F 18.1 °F 17.1 °F 57% 30.29 in 10.0 mi WNW 21.9 mph 38.0 mph N/A   Clear
7:55 AM 30.0 °F 18.7 °F 17.1 °F 59% 30.34 in 10.0 mi NW 16.1 mph 25.3 mph N/A   Clear
8:55 AM 30.9 °F 20.2 °F 18.0 °F 59% 30.35 in 10.0 mi WNW 15.0 mph 24.2 mph N/A   Clear
9:55 AM 32.0 °F 21.2 °F 17.1 °F 54% 30.38 in 10.0 mi NW 16.1 mph 26.5 mph N/A   Clear
10:55 AM 33.1 °F 21.9 °F 17.1 °F 52% 30.39 in 10.0 mi WNW 18.4 mph 26.5 mph N/A   Clear
11:55 AM 34.0 °F 22.1 °F 17.1 °F 50% 30.38 in 10.0 mi WNW 21.9 mph 27.6 mph N/A   Clear
12:55 PM 35.1 °F 24.8 °F 17.1 °F 48% 30.38 in 10.0 mi WNW 17.3 mph 24.2 mph N/A   Clear
1:55 PM 35.1 °F 25.2 °F 16.0 °F 46% 30.38 in 10.0 mi WNW 16.1 mph 26.5 mph N/A   Clear
2:55 PM 34.0 °F 24.2 °F 16.0 °F 48% 30.39 in 10.0 mi WNW 15.0 mph 23.0 mph N/A   Clear
3:55 PM 32.0 °F 22.1 °F 15.1 °F 50% 30.40 in 10.0 mi WNW 13.8 mph 25.3 mph N/A   Clear
4:55 PM 30.0 °F 21.1 °F 15.1 °F 54% 30.41 in 10.0 mi NW 10.4 mph - N/A   Clear
5:55 PM 28.0 °F 19.3 °F 15.1 °F 58% 30.42 in 10.0 mi WNW 9.2 mph - N/A   Clear
6:55 PM 27.0 °F 20.5 °F 15.1 °F 61% 30.43 in 10.0 mi WNW 5.8 mph - N/A   Clear
7:55 PM 25.0 °F 17.1 °F 15.1 °F 66% 30.43 in 10.0 mi WNW 6.9 mph - N/A   Clear
8:55 PM 23.0 °F 15.8 °F 15.1 °F 72% 30.43 in 10.0 mi WNW 5.8 mph - N/A   Clear
9:55 PM 23.0 °F 14.7 °F 15.1 °F 72% 30.42 in 10.0 mi WNW 6.9 mph - N/A   Clear
10:55 PM 21.9 °F 12.5 °F 15.1 °F 75% 30.42 in 10.0 mi NW 8.1 mph - N/A   Clear
11:55 PM 21.0 °F 12.4 °F 14.0 °F 74% 30.42 in 10.0 mi WNW 6.9 mph - N/A   Clear